This demonstration page uses our WeatherBlox Daily Observations layout. Learn more.

36.17497, -115.13722

Hourly Observations for May 11, 2015

Temp ( °F °C ) Dew Point ( °F °C ) Humidity (%) Winds ( mph kmh ) Pressure ( in mb ) Visibility ( mi km ) Precip ( " mm )
12:53 am 00:53 Clear 67 19.4 29 -1.7 24 24 WNW 3 6 29.93 1014 10 16.0934 0 0
1:53 am 01:53 Clear 66 18.9 29 -1.7 25 25 WNW 3 6 29.92 1013 10 16.0934 0 0
2:53 am 02:53 Clear 64 17.8 29 -1.7 27 27 WNW 3 6 29.92 1013 10 16.0934 0 0
3:53 am 03:53 Clear 61 16.1 27 -2.8 27 27 NNW 5 7 29.91 1013 10 16.0934 0 0
4:53 am 04:53 Clear 61 16.1 28 -2.2 29 29 NW 5 7 29.91 1013 10 16.0934 0 0
5:53 am 05:53 Sunny 61 16.1 28 -2.2 29 29 Calm 29.93 1013 10 16.0934 0 0
6:53 am 06:53 Sunny 65 18.3 30 -1.1 27 27 Calm 29.94 1014 10 16.0934 0 0
7:53 am 07:53 Sunny 68 20 25 -3.9 20 20 SE 3 6 29.95 1014 10 16.0934 0 0
8:53 am 08:53 Sunny 72 22.2 26 -3.3 18 18 ESE 6 9 29.94 1014 10 16.0934 0 0
9:53 am 09:53 Sunny 75 23.9 25 -3.9 15 15 E 5 7 29.93 1014 10 16.0934 0 0
10:53 am 10:53 Sunny 78 25.6 24 -4.4 13 13 VRB 6 9 29.91 1013 10 16.0934 0 0
11:53 am 11:53 Sunny 81 27.2 24 -4.4 12 12 SSE 8 13 29.88 1012 10 16.0934 0 0
12:53 pm 12:53 Sunny 82 27.8 22 -5.6 11 11 SSW 9 15 29.85 1011 10 16.0934 0 0
1:53 pm 13:53 Sunny 85 29.4 21 -6.1 9 9 SE 16 26 29.81 1010 10 16.0934 0 0
2:53 pm 14:53 Sunny 86 30 17 -8.3 8 8 SSW 15 24 29.78 1008 10 16.0934 0 0
3:53 pm 15:53 Sunny 86 30 16 -8.9 7 7 SSW 15 24 29.75 1007 10 16.0934 0 0
4:53 pm 16:53 Sunny 86 30 17 -8.3 8 8 S 14 22 29.73 1007 10 16.0934 0 0
5:53 pm 17:53 Sunny 86 30 20 -6.7 9 9 S 12 19 29.71 1006 10 16.0934 0 0
6:53 pm 18:53 Sunny 84 28.9 21 -6.1 10 10 SW 15 24 29.71 1006 10 16.0934 0 0
7:53 pm 19:53 Clear 82 27.8 20 -6.7 10 10 SW 8 13 29.72 1007 10 16.0934 0 0
8:53 pm 20:53 Clear 80 26.7 22 -5.6 11 11 SSW 8 13 29.72 1007 10 16.0934 0 0
9:53 pm 21:53 Clear 79 26.1 23 -5 12 12 SSW 9 15 29.74 1007 10 16.0934 0 0
10:53 pm 22:53 Clear 77 25 23 -5 13 13 SW 7 11 29.73 1007 10 16.0934 0 0
11:53 pm 23:53 Clear 75 23.9 23 -5 14 14 SW 9 15 29.73 1007 10 16.0934 0 0

Powered by AerisWeather